Minneapolis Flying Cloud, MN

3:58 PM CDT on April 23, 2017 (GMT -0500)
Flying Cloud

Weather History for KFCM - October, 2012

Change the Weather History Date:

Saturday, October 6, 2012

  Actual Average Record
Temperature  
Mean Temperature 38 °F -  
Max Temperature 46 °F 63 °F 84 °F (2007)
Min Temperature 33 °F 41 °F 30 °F (2000)
Degree Days  
Heating Degree Days 26    
Moisture  
Dew Point 26 °F    
Average Humidity 61    
Maximum Humidity 73    
Minimum Humidity 40    
Precipitation  
Precipitation 0.00 in - - ()
Sea Level Pressure  
Sea Level Pressure 30.23 in    
Wind  
Wind Speed 11 mph (NW)    
Max Wind Speed 15 mph    
Max Gust Speed 25 mph    
Visibility 10 miles    
Events      
Averages and records for this station are not official NWS values.
T = Trace of Precipitation, MM = Missing Value Source: NWS Daily Summary

Daily Weather History Graph

Daily Weather History Graph

Search for Another Location

Airport or City:

Trip Planner

Search our weather history database for the weather conditions in past years. The results will help you decide how hot, cold, wet, or windy it might be!

Date:

Astronomy

Oct. 06, 2012 Rise Set
Actual Time 7:18 AM CDT 6:44 PM CDT
Civil Twilight 6:49 AM CDT 7:13 PM CDT
Nautical Twilight 6:15 AM CDT 7:47 PM CDT
Astronomical Twilight 5:41 AM CDT 8:21 PM CDT
Moon 10:49 PM CDT (10/6) 1:25 PM CDT (10/6)
Length of Visible Light 12h 24m
Length of Day
11h 25m
Waning Gibbous, 65% of the Moon is Illuminated
Oct 6
Waning Gibbous
Oct 8
Last Quarter
Oct 15
New
Oct 21
First Quarter
Oct 29
Full

Hourly Weather History & Observations

Time (CDT) Temp. Windchill Dew Point Humidity Pressure Visibility Wind Dir Wind Speed Gust Speed Precip Events Conditions
12:44 AM 37.4 °F 28.5 °F 28.4 °F 70% 30.14 in 10.0 mi WNW 15.0 mph 21.9 mph N/A   Overcast
12:53 AM 37.9 °F 29.6 °F 28.0 °F 68% 30.17 in 10.0 mi WNW 13.8 mph - N/A   Overcast
1:53 AM 37.9 °F 30.5 °F 28.0 °F 68% 30.17 in 10.0 mi WNW 11.5 mph - N/A   Overcast
2:53 AM 37.9 °F 30.9 °F 28.9 °F 70% 30.17 in 10.0 mi WNW 10.4 mph - N/A   Overcast
3:53 AM 37.9 °F 30.9 °F 28.9 °F 70% 30.17 in 10.0 mi NW 10.4 mph - N/A   Overcast
4:53 AM 37.9 °F 30.9 °F 28.9 °F 70% 30.18 in 10.0 mi NW 10.4 mph 19.6 mph N/A   Mostly Cloudy
5:09 AM 37.4 °F 29.8 °F 28.4 °F 70% 30.16 in 10.0 mi NW 11.5 mph - N/A   Mostly Cloudy
5:26 AM 37.4 °F 28.9 °F 28.4 °F 70% 30.16 in 10.0 mi NNW 13.8 mph - N/A   Overcast
5:53 AM 37.9 °F 29.6 °F 28.9 °F 70% 30.20 in 10.0 mi NNW 13.8 mph - N/A   Overcast
6:53 AM 37.0 °F 29.3 °F 28.9 °F 73% 30.22 in 10.0 mi NNW 11.5 mph 21.9 mph N/A   Overcast
7:35 AM 37.4 °F 29.3 °F 28.4 °F 70% 30.21 in 10.0 mi NNW 12.7 mph - N/A   Overcast
7:53 AM 37.0 °F 29.8 °F 28.9 °F 73% 30.24 in 10.0 mi North 10.4 mph - N/A   Overcast
8:40 AM 37.4 °F 29.8 °F 28.4 °F 70% 30.24 in 10.0 mi North 11.5 mph - N/A   Overcast
9:53 AM 37.9 °F 30.9 °F 30.0 °F 73% 30.28 in 10.0 mi NNW 10.4 mph - 0.00 in   Mostly Cloudy
10:53 AM 41.0 °F 34.3 °F 27.0 °F 57% 30.29 in 10.0 mi NNW 11.5 mph 25.3 mph N/A   Overcast
11:53 AM 39.9 °F 32.5 °F 27.0 °F 60% 30.30 in 10.0 mi NW 12.7 mph 17.3 mph N/A   Overcast
12:53 PM 41.0 °F 33.9 °F 24.1 °F 51% 30.29 in 10.0 mi NNW 12.7 mph 18.4 mph N/A   Overcast
1:53 PM 42.1 °F 35.7 °F 24.1 °F 49% 30.28 in 10.0 mi NNW 11.5 mph - N/A   Overcast
2:53 PM 44.1 °F 38.1 °F 23.0 °F 43% 30.27 in 10.0 mi NNW 11.5 mph - N/A   Overcast
3:53 PM 44.1 °F 38.6 °F 21.0 °F 40% 30.25 in 10.0 mi West 10.4 mph - N/A   Overcast
4:53 PM 44.1 °F 38.6 °F 21.9 °F 42% 30.24 in 10.0 mi NNW 10.4 mph - N/A   Overcast
5:53 PM 44.1 °F 40.1 °F 21.9 °F 42% 30.24 in 10.0 mi NNW 6.9 mph - N/A   Overcast
6:53 PM 43.0 °F 39.5 °F 23.0 °F 45% 30.25 in 10.0 mi NNW 5.8 mph - N/A   Overcast
7:53 PM 41.0 °F - 23.0 °F 49% 30.26 in 10.0 mi Calm Calm - N/A   Scattered Clouds
8:53 PM 37.9 °F - 24.1 °F 57% 30.27 in 10.0 mi Calm Calm - N/A   Scattered Clouds
9:53 PM 35.1 °F 32.2 °F 23.0 °F 61% 30.27 in 10.0 mi West 3.5 mph - N/A   Partly Cloudy
10:53 PM 33.1 °F 27.7 °F 23.0 °F 66% 30.26 in 10.0 mi WSW 5.8 mph - N/A   Clear
11:53 PM 33.1 °F - 24.1 °F 70% 30.25 in 10.0 mi Calm Calm - N/A   Clear